Printer-friendly version

IAU Minor Planet Center

Minor Planet Center

MPEC 2005-U55 : 2005 UC3

The following Minor Planet Electronic Circular may be linked-to from your own Web pages, but must not otherwise be redistributed electronically.


Read MPEC 2005-U54 Read MPEC 2005-U56


M.P.E.C. 2005-U55                                Issued 2005 Oct. 26, 17:45 UT

     The Minor Planet Electronic Circulars contain information on unusual
         minor planets and routine data on comets.  They are published
   on behalf of Commission 20 of the International Astronomical Union by the
          Minor Planet Center, Smithsonian Astrophysical Observatory,
                          Cambridge, MA 02138, U.S.A.

                  Supported in part by the Brinson Foundation
                  Supported in part by the TABASGO Foundation
             Prepared using the Tamkin Foundation Computer Network

                              MPC@CFA.HARVARD.EDU
          URL http://cfa-www.harvard.edu/iau/mpc.html  ISSN 1523-6714

                                   2005 UC3

Observations:
     K05U03C* C2005 10 24.30522 01 51 04.57 +11 44 17.4          21.7 V EU055G96
     K05U03C  C2005 10 24.31124 01 51 08.17 +11 44 40.3          20.8 V EU055G96
     K05U03C  C2005 10 24.31726 01 51 11.73 +11 45 02.9          21.0 V EU055G96
     K05U03C  C2005 10 24.32327 01 51 15.33 +11 45 26.2          21.5 V EU055G96
     K05U03C  C2005 10 25.34917 02 01 29.96 +12 45 02.7          21.1 V EU055G96
     K05U03C  C2005 10 25.35016 02 01 30.55 +12 45 05.7          22.2 V EU055G96
     K05U03C  C2005 10 25.35123 02 01 31.05 +12 45 08.8          21.2 V EU055G96
     K05U03C  C2005 10 25.35221 02 01 31.59 +12 45 11.8          21.5 V EU055G96
     K05U03C  C2005 10 26.20618 02 09 06.32 +13 27 17.7          21.4 R EU055734
     K05U03C  C2005 10 26.21479 02 09 10.18 +13 27 43.6          20.6 R EU055734
     K05U03C  C2005 10 26.22260 02 09 13.72 +13 28 05.0          20.8 R EU055734
     K05U03C  C2005 10 26.23039 02 09 17.27 +13 28 25.1          21.9 R EU055734

Observer details:
734 Farpoint Observatory.  Observer G. Hug.  0.7-m reflector + CCD.
G96 Mt. Lemmon Survey.  Observer E. C. Beshore.  Measurers E. C. Beshore,
    E. J. Christensen, G. J. Garradd, A. D. Grauer, R. E. Hill, R. A. Kowalski,
    S. M. Larson, R. H. McNaught.  1.5-m reflector + CCD.

Orbital elements:
2005 UC3
Epoch 2005 Aug. 18.0 TT = JDT 2453600.5                 MPC
M 348.13536              (2000.0)            P               Q
n   0.30644259     Peri.  329.79770     +0.99842971     +0.05598325
a   2.1788967      Node    26.99323     -0.05047632     +0.91452494
e   0.5453526      Incl.    0.25193     -0.02429504     +0.40063700
P   3.22           H   27.1           G   0.15           U   8
Residuals in seconds of arc
051024 G96  0.4-  0.0     051025 G96  0.7-  0.2+    051026 734  0.7+  0.6-
051024 G96  0.0   0.0     051025 G96  0.5+  0.1+    051026 734  0.2-  1.1+
051024 G96  0.1-  0.2-    051025 G96  0.2-  0.2-    051026 734  0.4-  0.6+
051024 G96  0.4+  0.3+    051025 G96  0.4+  0.2-    051026 734  0.1-  1.0-

Ephemeris:
2005 UC3                 a,e,i = 2.18, 0.55, 0                   q = 0.9906
Date    TT    R. A. (2000) Decl.     Delta      r     Elong.  Phase     V
2005 10 27    02 15.30   +14 02.5    0.0726   1.066   177.3     2.6    21.8
2005 10 28    02 22.30   +14 40.1    0.0775   1.071   176.5     3.3    22.0
2005 10 29    02 28.47   +15 12.4    0.0826   1.076   175.9     3.8    22.2
2005 10 30    02 33.94   +15 40.3    0.0877   1.081   175.5     4.2    22.4
2005 10 31    02 38.80   +16 04.6    0.0930   1.085   175.2     4.4    22.5
2005 11 01    02 43.14   +16 25.8    0.0983   1.091   175.1     4.4    22.6
2005 11 02    02 47.02   +16 44.4    0.104    1.096   175.1     4.4    22.8
2005 11 03    02 50.52   +17 00.9    0.109    1.101   175.3     4.3    22.9
2005 11 04    02 53.68   +17 15.5    0.115    1.106   175.5     4.1    23.0
2005 11 05    02 56.53   +17 28.5    0.120    1.112   175.8     3.8    23.1
2005 11 06    02 59.13   +17 40.1    0.126    1.117   176.1     3.5    23.2

Kyle E. Smalley              (C) Copyright 2005 MPC           M.P.E.C. 2005-U55

Read MPEC 2005-U54 Read MPEC 2005-U56


Our Web policy. Index to the CBAT/MPC/ICQ pages.


Valid HTML 4.01!